Weather in Burkhala

Russia / Magadan District     62°38′49″N   149°07′11″E
temp.,
°C
wind,
m/s
gust,
m/s
humid.,
%
clouds,
%
prec.,
mm/h
press.,
hPa
HPBL,
m
28 october, thu
thu2823:00−21w229750 0.0 10199
02:00−22wnw229797 0.0 102010
05:00−23wnw229638 0.0 10209
08:00−23wnw229745 0.0 10209
11:00−18wnw229110 0.0 101834
14:00−15w22875 0.0 101624
17:00−20w229655 0.0 10179
20:00−22w229838 0.0 10199
29 october, fri
fri2923:00−22w22100100 0.0 10189
02:00−19w2296100 0.0 101610
05:00−21w2299100 0.0 101710
08:00−23w229955 0.0 10189
11:00−16w229788 0.1 101565
14:00−13wnw2395100 0.4 1013142
17:00−18w229891 0.6 10169
20:00−23w2210054 0.0 10199
30 october, sat
sat3023:00−25w229754 0.0 10209
02:00−26wnw229656 0.0 10229
05:00−24wnw229790 0.0 10219
08:00−25wnw229750 0.0 10229
11:00−22wnw229594 0.0 102221
14:00−19wnw229070 0.0 102019
17:00−25wnw229622 0.0 10239
20:00−27wnw2299100 0.0 10259
31 october, sun
sun3123:00−23wnw2296100 0.0 10249
02:00−23wnw2197100 0.0 102411
05:00−22wnw2198100 0.1 102514
08:00−22wnw2198100 0.1 102611
11:00−21wnw1197100 0.1 102648
14:00−19wnw119595 0.0 102630
17:00−23w1110077 0.1 10289
20:00−25wnw1110069 0.0 10309
1 november, mon
mon123:00−27wnw2110055 0.1 10329
02:00−29wnw229951 0.0 10329
05:00−30wnw2210038 0.0 10339
08:00−31wnw2210035 0.0 10339
11:00−27wnw229816 0.0 103125
14:00−23wnw22935 0.0 102822
17:00−29wnw22975 0.0 10309
20:00−31wnw22997 0.0 10309